Weather History for KCNK - August, 2012

Change the Weather History Date:

Monday, August 27, 2012

  Actual Average Record
Temperature  
Mean Temperature 75 °F 75 °F  
Max Temperature 87 °F 87 °F 107 °F (1913)
Min Temperature 62 °F 64 °F 47 °F (1906)
Degree Days  
Heating Degree Days 0 0  
Month to date heating degree days 0 0  
Since 1 June heating degree days 13 13  
Since 1 July heating degree days 0 0  
Cooling Degree Days 10 10  
Month to date cooling degree days 244 337  
Year to date cooling degree days 1473 1127  
Since 1 June cooling degree days 1229 1038  
Growing Degree Days 24 (Base 50)    
Moisture  
Dew Point 65 °F    
Average Humidity 73    
Maximum Humidity 100    
Minimum Humidity 46    
Precipitation  
Precipitation 0.00 in 0.10 in 1.86 in (1968)
Month to date precipitation 3.34 2.76  
Year to date precipitation 18.25 20.72  
Snow  
Snow 0.00 in 0.00 in 0.00 in ()
Month to date snowfall 0.0 0.0  
Year to date snowfall 5.8 13.7  
Since 1 July snowfall 0.0 0.0  
Snow Depth 0.00 in    
Sea Level Pressure  
Sea Level Pressure 30.10 in    
Wind  
Wind Speed 5 mph (SE)    
Max Wind Speed 13 mph    
Max Gust Speed 17 mph    
Visibility 8 miles    
Events      
T = Trace of Precipitation, MM = Missing Value Source: NWS Daily Summary

Daily Weather History Graph

Daily Weather History Graph

Search for Another Location

Airport or City:

Trip Planner

Search our weather history database for the weather conditions in past years. The results will help you decide how hot, cold, wet, or windy it might be!

Date:

Astronomy

Aug. 27, 2012 Rise Set
Actual Time 6:54 AM CDT 8:08 PM CDT
Civil Twilight 6:26 AM CDT 8:36 PM CDT
Nautical Twilight 5:53 AM CDT 9:09 PM CDT
Astronomical Twilight 5:18 AM CDT 9:44 PM CDT
Moon 5:28 PM CDT (8/27) 2:40 AM CDT (8/27)
Length of Visible Light 14h 09m
Length of Day
13h 13m
Waxing Gibbous, 83% of the Moon is Illuminated
Aug 27
Waxing Gibbous
Aug 31
Full
Sep 8
Last Quarter
Sep 15
New
Sep 22
First Quarter

Hourly Weather History & Observations

Time (CDT) Temp. Heat Index Dew Point Humidity Pressure Visibility Wind Dir Wind Speed Gust Speed Precip Events Conditions
12:55 AM 64.9 °F - 64.0 °F 97% 30.08 in 10.0 mi Calm Calm - N/A   Clear
1:55 AM 66.9 °F - 64.9 °F 93% 30.07 in 9.0 mi Calm Calm - N/A   Clear
2:55 AM 64.9 °F - 64.0 °F 97% 30.07 in 4.0 mi Calm Calm - N/A   Clear
3:45 AM 64.4 °F - 64.4 °F 100% 30.11 in 1.5 mi Calm Calm - N/A   Clear
3:47 AM 64.4 °F - 64.4 °F 100% 30.11 in 0.8 mi Calm Calm - N/A   Mist
3:55 AM 64.0 °F - 63.0 °F 96% 30.08 in 1.0 mi Calm Calm - N/A   Mist
3:57 AM 64.4 °F - 62.6 °F 94% 30.11 in 2.5 mi Calm Calm - N/A   Clear
4:04 AM 64.4 °F - 62.6 °F 94% 30.11 in 5.0 mi Calm Calm - N/A   Clear
4:55 AM 66.0 °F - 64.0 °F 93% 30.09 in 7.0 mi Calm Calm - N/A   Clear
5:50 AM 62.6 °F - 60.8 °F 94% 30.13 in 2.5 mi ESE 3.5 mph - N/A   Clear
5:55 AM 62.1 °F - 61.0 °F 96% 30.10 in 3.0 mi SE 3.5 mph - N/A   Clear
6:55 AM 64.9 °F - 63.0 °F 93% 30.11 in 6.0 mi SSE 3.5 mph - N/A   Clear
7:55 AM 66.0 °F - 64.9 °F 96% 30.14 in 5.0 mi Calm Calm - N/A   Clear
8:55 AM 72.0 °F - 66.9 °F 84% 30.15 in 6.0 mi SE 3.5 mph - N/A   Haze
9:55 AM 75.0 °F - 69.1 °F 82% 30.16 in 9.0 mi ENE 3.5 mph - N/A   Clear
10:55 AM 78.1 °F - 69.1 °F 74% 30.17 in 10.0 mi ESE 5.8 mph - N/A   Clear
11:55 AM 80.1 °F 82.9 °F 69.1 °F 69% 30.16 in 10.0 mi ESE 6.9 mph - N/A   Partly Cloudy
12:55 PM 82.0 °F 84.9 °F 68.0 °F 62% 30.14 in 10.0 mi SSE 5.8 mph - N/A   Partly Cloudy
1:55 PM 82.9 °F 85.4 °F 66.9 °F 58% 30.12 in 10.0 mi SE 6.9 mph - N/A   Partly Cloudy
2:55 PM 84.9 °F 87.6 °F 66.9 °F 55% 30.10 in 10.0 mi ESE 9.2 mph - N/A   Clear
3:55 PM 86.0 °F 88.2 °F 66.0 °F 51% 30.08 in 10.0 mi SSE 6.9 mph - N/A   Clear
4:55 PM 87.1 °F 88.9 °F 64.9 °F 48% 30.06 in 10.0 mi SE 10.4 mph - N/A   Clear
5:55 PM 86.0 °F 87.3 °F 64.0 °F 48% 30.06 in 10.0 mi ESE 9.2 mph - N/A   Clear
6:55 PM 84.0 °F 85.4 °F 64.0 °F 51% 30.05 in 10.0 mi SE 9.2 mph - N/A   Clear
7:55 PM 79.0 °F - 66.9 °F 66% 30.06 in 10.0 mi Calm Calm - N/A   Clear
8:55 PM 75.9 °F - 66.9 °F 74% 30.07 in 10.0 mi Calm Calm - N/A   Clear
9:55 PM 72.0 °F - 66.0 °F 81% 30.09 in 10.0 mi SSE 4.6 mph - N/A   Clear
10:55 PM 71.1 °F - 64.9 °F 81% 30.09 in 10.0 mi SSE 4.6 mph - N/A   Clear
11:55 PM 70.0 °F - 64.0 °F 81% 30.10 in 10.0 mi SSE 8.1 mph - N/A   Clear